Location: Antioch
(38.0049°N, 121.8058°W)
Time: 03:24:03
(UTC+00:00)

Cosmos 1354 Rocket - Pass Details

Date: 22 May 2026
Orbit: 761 x 778 km, 74.0° (Epoch: 9 June)

Event Time Altitude Azimuth Distance (km) Brightness Sun altitude
Rises 04:24:27 0° 352° (N) 3,235 8.0 -12.2°
Reaches altitude 10° 04:27:08 10° 4° (N) 2,303 7.0 -12.6°
Maximum altitude 04:31:39 29° 64° (ENE) 1,371 5.1 -13.3°
Enters shadow 04:34:28 18° 110° (ESE) 1,787 5.3 -13.7°
